Date String (YYYY-MM-DD hh:mm:ss) UTC,Instrument flags,Ambient pressure (hPa),Sample flow (lpm),Bypass flow (lpm),Sample temperature (°C),Ambient temperature (°C),ASC tube jacket temperature (°C),LED temperature (°C),Box temperature (°C),Sample RH (%),Span deviation,Mass concentration (μg/m³),Mass concentration (μg/m³),Mass concentration (μg/m³)
DateTimeUTC,F1_M11,P_M11,Q1_M11,Q2_M11,T1_M11,T2_M11,T3_M11,T4_M11,T5_M11,U1_M11,ZSPAN_M11,X0_M11,X2_M11,X1_M11
2022-08-12 08:00:00,,0830.1,4.98,0.00,29.6,27.6,00.0,38.4,31.4,24.6,0000.0,0013.43,0005.92,0005.05
2022-08-12 08:01:00,,0830.1,5.01,0.00,29.6,27.7,00.0,38.4,31.4,24.9,0000.0,0013.07,0005.91,0005.04
2022-08-12 08:02:00,,0830.1,4.99,0.00,29.6,27.8,00.0,38.4,31.4,25.1,0000.0,0013.08,0005.90,0005.03
2022-08-12 08:03:00,,0830.0,5.01,0.00,29.5,27.9,00.0,38.4,31.4,26.4,0000.0,0012.88,0005.92,0005.02
2022-08-12 08:04:00,,0830.1,4.99,0.00,29.6,28.1,00.0,38.4,31.4,26.7,0000.0,0012.74,0005.91,0005.00
2022-08-12 08:05:00,,0830.1,5.00,0.00,29.6,28.2,00.0,38.4,31.5,27.3,0000.0,0012.79,0005.91,0004.97
2022-08-12 08:06:00,,0830.1,5.01,0.00,29.6,28.3,00.0,38.4,31.5,27.4,0000.0,0012.73,0005.84,0004.94
2022-08-12 08:07:00,,0830.1,5.00,0.00,29.6,28.4,00.0,38.4,31.6,28.2,0000.0,0012.83,0005.78,0004.91
2022-08-12 08:08:00,,0830.1,5.01,0.00,29.7,28.5,00.0,38.4,31.6,28.3,0000.0,0012.33,0005.77,0004.88
2022-08-12 08:09:00,,0830.1,4.99,0.00,29.7,28.6,00.0,38.4,31.7,28.7,0000.0,0012.78,0005.76,0004.84
2022-08-12 08:10:00,,0830.1,5.00,0.00,29.7,28.7,00.0,38.5,31.7,28.3,0000.0,0012.95,0005.78,0004.79
2022-08-12 08:11:00,,0830.1,5.00,0.00,29.7,28.8,00.0,38.5,31.7,28.1,0000.0,0012.31,0005.79,0004.77
2022-08-12 08:12:00,,0830.1,5.02,0.00,29.8,28.5,00.0,38.5,31.7,28.4,0000.0,0013.14,0005.79,0004.74
2022-08-12 08:13:00,,0830.1,5.00,0.00,29.7,27.6,00.0,38.4,31.4,28.4,0000.0,0012.85,0005.80,0004.74
2022-08-12 08:14:00,,0830.1,5.00,0.00,29.6,27.0,00.0,38.4,31.3,28.9,0000.0,0013.00,0005.79,0004.73
2022-08-12 08:15:00,,0830.1,5.00,0.00,29.5,26.9,00.0,38.3,31.2,29.2,0000.0,0013.08,0005.75,0004.72
2022-08-12 08:16:00,,0830.0,5.01,0.00,29.5,27.0,00.0,38.3,31.2,29.3,0000.0,0013.00,0005.73,0004.72
2022-08-12 08:17:00,,0830.1,4.98,0.00,29.4,27.2,00.0,38.3,31.2,29.0,0000.0,0012.94,0005.80,0004.72
2022-08-12 08:18:00,,0830.1,5.00,0.00,29.4,27.4,00.0,38.3,31.2,28.3,0000.0,0012.89,0005.84,0004.73
2022-08-12 08:19:00,,0830.1,5.01,0.00,29.4,27.6,00.0,38.3,31.3,27.6,0000.0,0013.22,0005.89,0004.74
2022-08-12 08:20:00,,0830.1,5.00,0.00,29.4,27.7,00.0,38.3,31.3,27.0,0000.0,0013.09,0005.91,0004.75
2022-08-12 08:21:00,,0830.1,5.00,0.00,29.4,27.9,00.0,38.3,31.3,27.1,0000.0,0013.81,0005.90,0004.77
2022-08-12 08:22:00,,0830.1,5.00,0.00,29.4,28.0,00.0,38.3,31.4,26.8,0000.0,0013.56,0005.93,0004.78
2022-08-12 08:23:00,,0830.1,4.99,0.00,29.5,28.2,00.0,38.3,31.4,27.9,0000.0,0012.47,0005.96,0004.80
2022-08-12 08:24:00,,0830.1,5.00,0.00,29.5,28.3,00.0,38.3,31.4,27.6,0000.0,0012.17,0005.90,0004.80
2022-08-12 08:25:00,,0830.1,5.01,0.00,29.5,28.4,00.0,38.3,31.5,27.2,0000.0,0011.86,0005.86,0004.79
2022-08-12 08:26:00,,0830.1,5.00,0.00,29.6,28.5,00.0,38.3,31.5,26.7,0000.0,0011.77,0005.89,0004.80
2022-08-12 08:27:00,,0830.1,5.00,0.00,29.6,28.5,00.0,38.3,31.6,26.3,0000.0,0011.82,0005.89,0004.81
2022-08-12 08:28:00,,0830.1,5.00,0.00,29.6,28.6,00.0,38.4,31.6,26.4,0000.0,0012.18,0005.84,0004.80
2022-08-12 08:29:00,,0830.2,5.00,0.00,29.7,28.7,00.0,38.4,31.6,26.3,0000.0,0012.68,0005.83,0004.79
2022-08-12 08:30:00,,0830.2,5.00,0.00,29.7,28.8,00.0,38.4,31.7,27.0,0000.0,0012.38,0005.79,0004.78
2022-08-12 08:31:00,,0830.3,5.00,0.00,29.7,28.6,00.0,38.4,31.7,26.9,0000.0,0012.05,0005.73,0004.77
2022-08-12 08:32:00,,0830.2,5.00,0.00,29.7,27.9,00.0,38.4,31.5,27.4,0000.0,0011.09,0005.72,0004.77
2022-08-12 08:33:00,,0830.2,5.01,0.00,29.7,27.6,00.0,38.4,31.4,27.6,0000.0,0010.93,0005.70,0004.76
2022-08-12 08:34:00,,0830.2,5.01,0.00,29.6,27.5,00.0,38.3,31.3,28.3,0000.0,0011.49,0005.70,0004.75
2022-08-12 08:35:00,,0830.2,4.99,0.00,29.5,27.6,00.0,38.3,31.3,28.3,0000.0,0012.08,0005.74,0004.76
2022-08-12 08:36:00,,0830.1,5.01,0.00,29.5,27.7,00.0,38.3,31.3,28.2,0000.0,0013.03,0005.77,0004.77
2022-08-12 08:37:00,,0830.1,4.99,0.00,29.5,27.9,00.0,38.3,31.4,28.2,0000.0,0013.87,0005.81,0004.76
2022-08-12 08:38:00,,0830.1,5.00,0.00,29.5,28.0,00.0,38.3,31.4,28.2,0000.0,0014.39,0005.83,0004.75
2022-08-12 08:39:00,,0830.2,5.01,0.00,29.5,28.1,00.0,38.4,31.4,28.3,0000.0,0014.87,0005.88,0004.78
2022-08-12 08:40:00,,0830.2,5.00,0.00,29.6,28.2,00.0,38.4,31.5,28.3,0000.0,0014.43,0005.89,0004.78
2022-08-12 08:41:00,,0830.2,5.00,0.00,29.6,28.4,00.0,38.4,31.5,28.3,0000.0,0014.70,0005.87,0004.78
2022-08-12 08:42:00,,0830.2,4.99,0.00,29.6,28.5,00.0,38.4,31.6,28.4,0000.0,0015.50,0005.89,0004.78
2022-08-12 08:43:00,,0830.2,5.00,0.00,29.6,28.5,00.0,38.4,31.6,28.6,0000.0,0015.59,0005.93,0004.77
2022-08-12 08:44:00,,0830.1,5.00,0.00,29.7,28.6,00.0,38.4,31.7,28.5,0000.0,0016.32,0005.97,0004.78
2022-08-12 08:45:00,,0830.1,5.01,0.00,29.7,28.7,00.0,38.4,31.7,28.8,0000.0,0017.16,0005.99,0004.78
2022-08-12 08:46:00,,0830.2,5.00,0.00,29.7,28.7,00.0,38.5,31.7,28.7,0000.0,0017.67,0006.01,0004.77
2022-08-12 08:47:00,,0830.1,4.99,0.00,29.7,28.3,00.0,38.4,31.6,28.7,0000.0,0017.30,0005.98,0004.75
2022-08-12 08:48:00,,0830.1,5.00,0.00,29.7,27.7,00.0,38.4,31.5,28.6,0000.0,0016.28,0005.93,0004.76
2022-08-12 08:49:00,,0830.1,5.00,0.00,29.6,27.6,00.0,38.4,31.4,28.5,0000.0,0015.96,0005.93,0004.76
2022-08-12 08:50:00,,0830.1,5.00,0.00,29.6,27.6,00.0,38.4,31.3,27.0,0000.0,0015.33,0005.94,0004.75
2022-08-12 08:51:00,,0830.1,5.00,0.00,29.5,27.7,00.0,38.4,31.3,25.9,0000.0,0015.26,0005.96,0004.76
2022-08-12 08:52:00,,0830.1,5.00,0.00,29.5,27.8,00.0,38.4,31.4,25.0,0000.0,0015.04,0005.98,0004.79
2022-08-12 08:53:00,,0830.1,4.99,0.00,29.5,28.0,00.0,38.4,31.4,24.6,0000.0,0014.74,0005.98,0004.82
2022-08-12 08:54:00,,0830.1,5.01,0.00,29.6,28.1,00.0,38.4,31.5,24.5,0000.0,0015.12,0005.98,0004.85
2022-08-12 08:55:00,,0830.1,5.00,0.00,29.6,28.2,00.0,38.4,31.5,24.4,0000.0,0014.47,0005.92,0004.86
2022-08-12 08:56:00,,0830.2,5.00,0.00,29.6,28.3,00.0,38.4,31.5,24.4,0000.0,0013.14,0005.85,0004.89
2022-08-12 08:57:00,,0830.1,5.00,0.00,29.6,28.4,00.0,38.4,31.6,24.3,0000.0,0011.99,0005.81,0004.93
2022-08-12 08:58:00,,0830.2,5.00,0.00,29.6,28.5,00.0,38.4,31.6,24.2,0000.0,0011.12,0005.77,0004.95
2022-08-12 08:59:00,,0830.2,4.99,0.00,29.7,28.6,00.0,38.4,31.6,24.2,0000.0,0010.98,0005.78,0004.98
